Date String (YYYY-MM-DD hh:mm:ss) UTC,Instrument flags,Ambient pressure (hPa),Sample flow (lpm),Bypass flow (lpm),Sample temperature (°C),Ambient temperature (°C),ASC tube jacket temperature (°C),LED temperature (°C),Box temperature (°C),Sample RH (%),Span deviation,Mass concentration (μg/m³),Mass concentration (μg/m³),Mass concentration (μg/m³)
DateTimeUTC,F1_M11,P_M11,Q1_M11,Q2_M11,T1_M11,T2_M11,T3_M11,T4_M11,T5_M11,U1_M11,ZSPAN_M11,X0_M11,X2_M11,X1_M11
2021-11-01 20:00:00,,0831.9,4.99,0.00,23.3,22.5,00.0,32.3,25.1,19.0,0000.0,0007.42,0006.11,0006.03
2021-11-01 20:01:00,,0832.0,5.01,0.00,23.3,22.5,00.0,32.3,25.1,19.0,0000.0,0007.45,0006.12,0006.03
2021-11-01 20:02:00,,0831.9,4.99,0.00,23.3,22.5,00.0,32.3,25.1,19.0,0000.0,0007.46,0006.12,0006.02
2021-11-01 20:03:00,,0831.9,5.00,0.00,23.3,22.5,00.0,32.3,25.1,19.2,0000.0,0007.45,0006.12,0006.03
2021-11-01 20:04:00,,0831.9,5.01,0.00,23.3,22.6,00.0,32.3,25.2,19.1,0000.0,0007.44,0006.13,0006.05
2021-11-01 20:05:00,,0831.9,4.99,0.00,23.3,22.6,00.0,32.4,25.2,18.8,0000.0,0007.46,0006.16,0006.07
2021-11-01 20:06:00,,0832.0,5.00,0.00,23.4,22.6,00.0,32.4,25.2,18.8,0000.0,0007.51,0006.20,0006.11
2021-11-01 20:07:00,,0832.0,5.00,0.00,23.4,22.6,00.0,32.4,25.2,18.8,0000.0,0007.54,0006.25,0006.16
2021-11-01 20:08:00,,0831.9,5.01,0.00,23.4,22.6,00.0,32.4,25.2,18.8,0000.0,0007.59,0006.29,0006.21
2021-11-01 20:09:00,,0831.9,4.99,0.00,23.4,22.6,00.0,32.4,25.2,18.7,0000.0,0007.62,0006.32,0006.23
2021-11-01 20:10:00,,0832.0,5.01,0.00,23.4,22.6,00.0,32.4,25.2,18.8,0000.0,0007.66,0006.34,0006.25
2021-11-01 20:11:00,,0832.0,4.99,0.00,23.4,22.6,00.0,32.4,25.2,18.8,0000.0,0007.79,0006.37,0006.26
2021-11-01 20:12:00,,0832.0,5.01,0.00,23.4,22.6,00.0,32.4,25.3,18.7,0000.0,0007.78,0006.36,0006.27
2021-11-01 20:13:00,,0831.9,4.99,0.00,23.4,22.6,00.0,32.4,25.2,18.7,0000.0,0007.81,0006.38,0006.28
2021-11-01 20:14:00,,0832.0,5.01,0.00,23.4,22.6,00.0,32.4,25.2,18.8,0000.0,0007.81,0006.38,0006.28
2021-11-01 20:15:00,,0832.0,4.99,0.00,23.4,22.7,00.0,32.4,25.2,18.9,0000.0,0007.83,0006.39,0006.29
2021-11-01 20:16:00,,0832.0,4.99,0.00,23.4,22.7,00.0,32.4,25.2,18.9,0000.0,0007.84,0006.38,0006.28
2021-11-01 20:17:00,,0832.0,5.01,0.00,23.5,22.7,00.0,32.4,25.2,18.8,0000.0,0007.84,0006.38,0006.28
2021-11-01 20:18:00,,0831.9,5.00,0.00,23.5,22.7,00.0,32.4,25.3,18.7,0000.0,0007.88,0006.38,0006.29
2021-11-01 20:19:00,,0831.9,5.01,0.00,23.5,22.7,00.0,32.4,25.3,18.6,0000.0,0007.86,0006.37,0006.28
2021-11-01 20:20:00,,0831.8,5.01,0.00,23.5,22.7,00.0,32.4,25.3,18.6,0000.0,0007.88,0006.39,0006.28
2021-11-01 20:21:00,,0831.7,4.99,0.00,23.5,22.7,00.0,32.4,25.3,18.7,0000.0,0007.87,0006.39,0006.29
2021-11-01 20:22:00,,0831.7,5.00,0.00,23.5,22.7,00.0,32.5,25.3,18.7,0000.0,0007.80,0006.39,0006.30
2021-11-01 20:23:00,,0831.7,5.01,0.00,23.5,22.7,00.0,32.5,25.3,18.7,0000.0,0007.82,0006.41,0006.30
2021-11-01 20:24:00,,0831.7,5.00,0.00,23.5,22.7,00.0,32.5,25.3,18.9,0000.0,0007.83,0006.41,0006.30
2021-11-01 20:25:00,,0831.7,5.00,0.00,23.5,22.7,00.0,32.5,25.3,19.0,0000.0,0007.96,0006.43,0006.31
2021-11-01 20:26:00,,0831.8,4.99,0.00,23.5,22.7,00.0,32.5,25.3,19.2,0000.0,0007.97,0006.44,0006.32
2021-11-01 20:27:00,,0831.9,5.01,0.00,23.5,22.7,00.0,32.5,25.3,18.9,0000.0,0008.00,0006.46,0006.34
2021-11-01 20:28:00,,0832.0,4.99,0.00,23.5,22.7,00.0,32.5,25.3,18.8,0000.0,0008.03,0006.48,0006.36
2021-11-01 20:29:00,,0832.0,5.00,0.00,23.5,22.7,00.0,32.5,25.3,18.9,0000.0,0008.02,0006.50,0006.38
2021-11-01 20:30:00,,0831.9,5.00,0.00,23.5,22.7,00.0,32.5,25.4,19.0,0000.0,0008.09,0006.53,0006.40
2021-11-01 20:31:00,,0831.8,5.00,0.00,23.6,22.7,00.0,32.5,25.4,18.8,0000.0,0008.09,0006.54,0006.42
2021-11-01 20:32:00,,0831.8,4.99,0.00,23.6,22.8,00.0,32.5,25.4,18.7,0000.0,0008.11,0006.55,0006.42
2021-11-01 20:33:00,,0831.7,5.01,0.00,23.6,22.8,00.0,32.5,25.4,18.8,0000.0,0008.12,0006.56,0006.43
2021-11-01 20:34:00,,0831.7,5.00,0.00,23.6,22.8,00.0,32.5,25.4,18.5,0000.0,0008.10,0006.55,0006.44
2021-11-01 20:35:00,,0831.7,4.99,0.00,23.6,22.8,00.0,32.5,25.4,18.5,0000.0,0008.06,0006.55,0006.43
2021-11-01 20:36:00,,0831.7,5.00,0.00,23.6,22.8,00.0,32.5,25.4,18.4,0000.0,0008.03,0006.56,0006.44
2021-11-01 20:37:00,,0831.8,5.00,0.00,23.6,22.8,00.0,32.6,25.4,18.5,0000.0,0008.05,0006.57,0006.44
2021-11-01 20:38:00,,0831.8,5.01,0.00,23.6,22.8,00.0,32.6,25.4,18.7,0000.0,0008.03,0006.56,0006.44
2021-11-01 20:39:00,,0831.7,4.99,0.00,23.6,22.8,00.0,32.6,25.4,19.0,0000.0,0007.99,0006.56,0006.44
2021-11-01 20:40:00,,0831.7,4.99,0.00,23.6,22.8,00.0,32.6,25.4,18.8,0000.0,0007.98,0006.54,0006.43
2021-11-01 20:41:00,,0831.7,5.00,0.00,23.6,22.8,00.0,32.6,25.4,18.8,0000.0,0007.93,0006.51,0006.41
2021-11-01 20:42:00,,0831.7,5.00,0.00,23.6,22.8,00.0,32.6,25.4,18.8,0000.0,0007.91,0006.50,0006.40
2021-11-01 20:43:00,,0831.7,5.00,0.00,23.6,22.8,00.0,32.6,25.4,18.9,0000.0,0007.91,0006.49,0006.40
2021-11-01 20:44:00,,0831.8,5.01,0.00,23.6,22.8,00.0,32.6,25.4,18.8,0000.0,0007.98,0006.49,0006.39
2021-11-01 20:45:00,,0831.7,5.00,0.00,23.6,22.8,00.0,32.6,25.5,18.5,0000.0,0007.99,0006.50,0006.41
2021-11-01 20:46:00,,0831.7,5.00,0.00,23.6,22.8,00.0,32.6,25.5,18.5,0000.0,0008.00,0006.51,0006.44
2021-11-01 20:47:00,,0831.8,5.00,0.00,23.6,22.8,00.0,32.6,25.5,18.3,0000.0,0008.01,0006.51,0006.45
2021-11-01 20:48:00,,0831.7,4.99,0.00,23.6,22.8,00.0,32.6,25.5,18.3,0000.0,0008.02,0006.52,0006.46
2021-11-01 20:49:00,,0831.8,5.01,0.00,23.6,22.8,00.0,32.6,25.5,18.4,0000.0,0008.12,0006.56,0006.48
2021-11-01 20:50:00,,0831.8,4.99,0.00,23.6,22.8,00.0,32.6,25.4,18.5,0000.0,0008.15,0006.57,0006.48
2021-11-01 20:51:00,,0831.7,5.00,0.00,23.6,22.8,00.0,32.6,25.5,18.6,0000.0,0008.18,0006.60,0006.49
2021-11-01 20:52:00,,0831.7,4.99,0.00,23.6,22.8,00.0,32.6,25.4,18.7,0000.0,0008.20,0006.62,0006.50
2021-11-01 20:53:00,,0831.8,5.01,0.00,23.6,22.8,00.0,32.6,25.4,19.0,0000.0,0008.25,0006.65,0006.51
2021-11-01 20:54:00,,0831.9,5.01,0.00,23.6,22.8,00.0,32.6,25.4,19.0,0000.0,0008.23,0006.65,0006.51
2021-11-01 20:55:00,,0831.9,5.00,0.00,23.6,22.8,00.0,32.6,25.4,19.2,0000.0,0008.14,0006.64,0006.51
2021-11-01 20:56:00,,0831.8,4.98,0.00,23.6,22.8,00.0,32.6,25.4,19.2,0000.0,0008.37,0006.64,0006.51
2021-11-01 20:57:00,,0831.7,5.01,0.00,23.6,22.8,00.0,32.6,25.4,19.1,0000.0,0008.50,0006.65,0006.52
2021-11-01 20:58:00,,0831.7,5.00,0.00,23.6,22.8,00.0,32.6,25.4,18.7,0000.0,0008.43,0006.66,0006.53
2021-11-01 20:59:00,,0831.7,4.99,0.00,23.6,22.8,00.0,32.6,25.4,18.6,0000.0,0008.47,0006.67,0006.54
